Home   Weather   Corrientes   Past weeks

Flag for Argentina Past Weather in Corrientes, Corrientes, Argentina — Yesterday and Last 2 Weeks

Now
70 °F

Partly sunny.


Feels Like: 70 °F
Forecast: N/A
Wind: 9 mph from Southeast

Location: Resistencia Aero.

Current Time: Sep 29, 2016 at 7:09:23 PM

Latest Report: Sep 29, 2016 at 6:00 PM


Visibility: 5 mi

Pressure: 29.92 "Hg

Humidity: 60%

Dew Point: 55 °F

Location of CorrientesLocation

Past Weather in Corrientes — Graph

°F

Corrientes Temperature Yesterday

Maximum temperature yesterday: 95 °F (at 2:00 PM)
Minimum temperature yesterday: 57 °F (at 6:00 AM)
Average temperature yesterday: 78 °F

High & Low Weather Summary for the Past Weeks

 TemperatureHumidityPressure
High95 °F (Sep 28, 2:00 PM)100% (Sep 15, 4:00 AM)30.27 "Hg (Sep 15, 4:00 AM)
Low45 °F (Sep 15, 6:00 AM)18% (Sep 26, 3:00 PM)29.68 "Hg (Sep 17, 5:00 PM)
Average67 °F59%30.04 "Hg
* Reported Sep 14 6:00 PM — Sep 29 6:00 PM, Corrientes, Weather by CustomWeather, © 2016

Note: Actual official high and low records may vary slightly from our data, if they occured in-between our weather recording intervals... More about our weather records

Advertising

Corrientes Weather History for the Previous 24 Hours

Scroll right to see more
 ConditionsComfort  
Time TempWeatherWind HumidityBarometerVisibility
6:00 PM
Thu, Sep 29
70 °FPartly sunny.9 mph60%29.92 "Hg5 mi
5:00 PM70 °FSunny.5 mph64%29.92 "Hg10 mi
4:00 PM68 °FSunny.7 mph69%29.92 "Hg10 mi
3:00 PM68 °FSunny.6 mph64%29.98 "Hg10 mi
2:00 PM66 °FClear.6 mph73%29.98 "Hg5 mi
1:00 PM61 °FRain. Clear.7 mph88%30.01 "Hg4 mi
12:00 PM63 °FRain. Clear.6 mph83%30.04 "Hg3 mi
11:00 AM63 °FLight rain. Clear.7 mph77%30.07 "Hg4 mi
10:00 AM64 °FLight rain. Clear.9 mph73%30.07 "Hg5 mi
9:00 AM64 °FLight rain. Partly sunny.8 mph68%30.07 "Hg5 mi
8:00 AM63 °FLight rain. Partly sunny.13 mph73%30.09 "Hg3 mi
7:00 AM66 °FPassing clouds.9 mph52%29.98 "HgN/A
6:00 AM68 °FPassing clouds.9 mph46%29.95 "HgN/A
4:00 AM68 °FPassing clouds.8 mph46%29.95 "HgN/A
3:00 AM70 °FPassing clouds.9 mph46%29.95 "HgN/A
2:00 AM70 °FPassing clouds.9 mph50%29.98 "HgN/A
1:00 AM72 °FPassing clouds.7 mph57%29.98 "HgN/A
12:00 AM73 °FClear.10 mph47%29.98 "Hg10 mi
11:00 PM
Wed, Sep 28
75 °FClear.8 mph54%29.98 "Hg10 mi
10:00 PM73 °FClear.6 mph65%29.95 "Hg10 mi
9:00 PM75 °FClear.7 mph61%29.92 "Hg10 mi
8:00 PM79 °FClear.8 mph54%29.92 "Hg5 mi
7:00 PM84 °FClear.8 mph43%29.89 "Hg4 mi
Weather by CustomWeather, © 2016

See weather overviewHow to use our weather pages